Weather History for Dover AFB, DE

Change the Weather History Date:

Monday, July 9, 2012

  Actual Average Record
Temperature  
Mean Temperature 78 °F -  
Max Temperature 84 °F 88 °F 98 °F (1990)
Min Temperature 72 °F 67 °F 45 °F (1963)
Cooling Degree Days 12    
Growing Degree Days 28 (Base 50)    
Moisture  
Dew Point 73 °F    
Average Humidity 87    
Maximum Humidity 100    
Minimum Humidity 56    
Precipitation  
Precipitation 0.19 in - - ()
Sea Level Pressure  
Sea Level Pressure 29.89 in    
Wind  
Wind Speed 5 mph (ESE)    
Max Wind Speed 13 mph    
Max Gust Speed -    
Visibility 8 miles    
Events Rain , Thunderstorm    
Averages and records for this station are not official NWS values.
T = Trace of Precipitation, MM = Missing Value Source: NWS Daily Summary

Daily Weather History Graph

Daily Weather History Graph

Search for Another Location

Airport:

Trip Planner

Search our weather history database for the weather conditions in past years. The results will help you decide how hot, cold, wet, or windy it might be!

Date:

Astronomy

Jul. 09, 2012 Rise Set
Actual Time 5:44 AM EDT 8:29 PM EDT
Civil Twilight 5:12 AM EDT 9:01 PM EDT
Nautical Twilight 4:32 AM EDT 9:40 PM EDT
Astronomical Twilight 3:47 AM EDT 10:25 PM EDT
Moon 11:47 PM EDT (7/9) 12:05 PM EDT (7/9)
Length of Visible Light 15h 48m
Length of Day
14h 45m
Waning Gibbous, 64% of the Moon is Illuminated
Jul 9
Waning Gibbous
Jul 10
Last Quarter
Jul 19
New
Jul 26
First Quarter
Aug 1
Full

Hourly Weather History & Observations

Time (EDT) Temp. Heat Index Dew Point Humidity Pressure Visibility Wind Dir Wind Speed Gust Speed Precip Events Conditions
12:55 AM 78.8 °F - 74.8 °F 88% 29.85 in 10.0 mi Calm Calm - N/A   Partly Cloudy
1:55 AM 78.3 °F - 75.4 °F 91% 29.84 in 10.0 mi SSE 3.5 mph - N/A   Partly Cloudy
2:55 AM 78.8 °F - 75.7 °F 90% 29.83 in 10.0 mi SSE 3.5 mph - N/A   Mostly Cloudy
3:48 AM 77.0 °F - 75.2 °F 94% 29.82 in 9.0 mi ENE 3.5 mph - N/A   Light Drizzle
3:55 AM 77.2 °F - 75.7 °F 95% 29.83 in 10.0 mi Calm Calm - 0.00 in   Light Drizzle
4:06 AM 77.0 °F - 75.2 °F 94% 29.84 in 9.0 mi Calm Calm - N/A   Light Drizzle
4:07 AM 77.0 °F - 75.2 °F 94% 29.84 in 9.0 mi Calm Calm - N/A   Light Drizzle
4:15 AM 77.0 °F - 77.0 °F 100% 29.86 in 5.0 mi SSW 3.5 mph - N/A Rain Light Rain
4:19 AM 78.8 °F - 77.0 °F 94% 29.86 in 5.0 mi SSW 4.6 mph - N/A Rain Light Rain
4:27 AM 78.8 °F - 77.0 °F 94% 29.86 in 4.0 mi SSW 4.6 mph - N/A Rain Light Rain
4:33 AM 78.8 °F - 77.0 °F 94% 29.85 in 4.0 mi Calm Calm - N/A Rain Light Rain
4:42 AM 78.8 °F - 77.0 °F 94% 29.85 in 6.0 mi Calm Calm - N/A Rain Light Rain
4:50 AM 77.0 °F - 77.0 °F 100% 29.86 in 7.0 mi SSW 3.5 mph - N/A Rain Light Rain
4:55 AM 77.7 °F - 76.3 °F 95% 29.87 in 8.0 mi South 5.8 mph - 0.05 in   Light Drizzle
4:56 AM 77.0 °F - 77.0 °F 100% 29.87 in 8.0 mi South 4.6 mph - N/A   Light Drizzle
5:09 AM 78.8 °F - 77.0 °F 94% 29.86 in 5.0 mi South 4.6 mph - N/A Rain , Thunderstorm Light Rain
5:34 AM 77.0 °F - 77.0 °F 100% 29.88 in 4.0 mi South 6.9 mph - N/A Rain Light Rain
5:36 AM 77.0 °F - 77.0 °F 100% 29.88 in 4.0 mi South 9.2 mph - N/A Rain Light Rain
5:46 AM 77.0 °F - 77.0 °F 100% 29.88 in 6.0 mi South 6.9 mph - N/A Rain Light Rain
5:48 AM 77.0 °F - 75.2 °F 94% 29.88 in 5.0 mi South 8.1 mph - N/A Rain Light Rain
5:49 AM 77.0 °F - 75.2 °F 94% 29.88 in 5.0 mi South 8.1 mph - N/A Rain Light Rain
5:53 AM 77.0 °F - 75.2 °F 94% 29.88 in 4.0 mi South 6.9 mph - N/A Rain Light Rain
5:55 AM 76.5 °F - 75.0 °F 95% 29.88 in 4.0 mi South 6.9 mph - 0.09 in Rain Light Rain
6:55 AM 75.6 °F - 74.8 °F 98% 29.89 in 4.0 mi NNW 4.6 mph - 0.05 in Rain Light Rain
7:14 AM 75.2 °F - 75.2 °F 100% 29.88 in 6.0 mi North 5.8 mph - N/A   Mostly Cloudy
7:31 AM 75.2 °F - 75.2 °F 100% 29.88 in 10.0 mi North 5.8 mph - N/A   Light Drizzle
7:40 AM 77.0 °F - 75.2 °F 94% 29.88 in 10.0 mi North 6.9 mph - N/A   Clear
7:45 AM 75.2 °F - 75.2 °F 100% 29.88 in 10.0 mi North 6.9 mph - N/A   Light Drizzle
7:55 AM 76.5 °F - 75.2 °F 96% 29.89 in 9.0 mi Calm Calm - 0.00 in   Light Drizzle
8:03 AM 77.0 °F - 75.2 °F 94% 29.90 in 9.0 mi NNE 3.5 mph - N/A   Clear
8:14 AM 77.0 °F - 75.2 °F 94% 29.91 in 10.0 mi NNE 10.4 mph - N/A   Mostly Cloudy
8:21 AM 77.0 °F - 73.4 °F 89% 29.91 in 10.0 mi NE 11.5 mph - N/A   Mostly Cloudy
8:22 AM 75.2 °F - 73.4 °F 94% 29.91 in 10.0 mi NE 11.5 mph - N/A   Light Drizzle
8:41 AM 75.2 °F - 71.6 °F 89% 29.91 in 10.0 mi NE 9.2 mph - N/A   Mostly Cloudy
8:55 AM 75.9 °F - 70.5 °F 83% 29.91 in 10.0 mi NE 10.4 mph - 0.00 in   Mostly Cloudy
9:11 AM 75.2 °F - 69.8 °F 83% 29.91 in 10.0 mi NE 10.4 mph - N/A   Light Drizzle
9:21 AM 75.2 °F - 68.0 °F 78% 29.91 in 10.0 mi NE 9.2 mph - N/A   Light Drizzle
9:26 AM 75.2 °F - 69.8 °F 83% 29.91 in 10.0 mi NE 8.1 mph - N/A   Mostly Cloudy
9:55 AM 76.8 °F - 69.3 °F 77% 29.90 in 10.0 mi NE 10.4 mph - 0.00 in   Scattered Clouds
10:55 AM 78.6 °F - 67.8 °F 69% 29.91 in 10.0 mi ENE 12.7 mph - N/A   Scattered Clouds
11:55 AM 79.3 °F - 68.5 °F 69% 29.94 in 10.0 mi ENE 10.4 mph - N/A   Scattered Clouds
12:55 PM 82.2 °F 85.8 °F 69.4 °F 65% 29.95 in 10.0 mi ENE 10.4 mph - N/A   Scattered Clouds
1:55 PM 81.7 °F 84.5 °F 68.2 °F 63% 29.95 in 10.0 mi ENE 8.1 mph - N/A   Scattered Clouds
2:55 PM 83.5 °F 86.9 °F 68.7 °F 61% 29.94 in 10.0 mi NE 8.1 mph - N/A   Partly Cloudy
3:55 PM 80.6 °F 83.5 °F 68.7 °F 67% 29.94 in 10.0 mi ESE 8.1 mph - N/A   Partly Cloudy
4:55 PM 80.8 °F 83.2 °F 66.9 °F 63% 29.94 in 10.0 mi East 6.9 mph - N/A   Partly Cloudy
5:55 PM 81.0 °F 82.5 °F 64.0 °F 56% 29.93 in 10.0 mi ESE 10.4 mph - N/A   Clear
6:55 PM 80.2 °F 82.6 °F 67.3 °F 64% 29.94 in 10.0 mi ESE 10.4 mph - N/A   Clear
7:55 PM 77.2 °F - 66.0 °F 68% 29.93 in 10.0 mi ESE 6.9 mph - N/A   Clear
8:55 PM 73.9 °F - 66.9 °F 79% 29.95 in 10.0 mi SE 4.6 mph - N/A   Clear
9:55 PM 72.9 °F - 68.0 °F 85% 29.97 in 10.0 mi SE 4.6 mph - N/A   Clear
10:55 PM 72.9 °F - 68.5 °F 86% 29.97 in 10.0 mi SSE 4.6 mph - N/A   Partly Cloudy
11:55 PM 72.9 °F - 69.1 °F 88% 29.97 in 10.0 mi South 3.5 mph - N/A   Clear